Snowfall_Accumulation
nan nan nan nan nan nan nan nan nan nan nan nan nan nan nan nan nan 0.0 0.0 0.0 0.0 0.0 0.0 0.0 0.0 0.0 0.0 0.0 0.1 0.0 0.1 0.1 0.3 0.5 0.8 0.6 2.3 0.4 0.3 0.0 0.0 0.1 0.8 2.2 0.7 1.0 1.4 0.0 0.0 0.0 0.1 0.0 0.0 0.0
nan nan nan nan nan nan nan nan nan nan nan nan nan nan nan nan nan nan 0.0 0.0 0.0 0.0 0.0 0.0 0.0 0.0 0.0 0.0 0.0 0.0 0.0 0.0 0.0 0.2 0.6 0.5 2.3 2.9 0.1 1.3 0.0 0.5 0.1 0.3 0.1 0.4 0.0 0.0 0.0 0.0 0.0 0.0 0.0 0.0
nan nan nan nan nan nan nan nan nan nan nan nan nan nan nan nan nan nan 0.0 0.0 0.0 0.0 0.0 0.0 0.0 0.0 0.0 0.0 0.0 0.0 0.0 0.0 0.0 0.0 0.2 0.4 0.3 0.6 2.4 0.4 0.1 0.0 0.0 0.2 0.0 0.0 0.0 0.0 0.0 0.0 0.0 0.0 0.0 0.0
nan nan nan nan nan nan nan nan nan nan nan nan nan nan nan nan nan nan 0.0 0.0 0.0 0.0 0.9 0.1 0.0 0.0 0.0 0.0 0.0 0.0 0.0 0.0 0.0 0.0 0.3 0.6 1.5 0.0 0.8 0.3 0.5 0.0 0.0 0.0 0.0 0.0 0.0 0.0 0.0 0.0 0.0 0.0 0.0 0.0
nan nan nan nan nan nan nan nan nan nan nan nan nan nan nan nan nan nan 0.0 0.0 0.0 0.0 0.4 0.2 0.0 0.0 0.0 0.0 0.0 0.0 0.0 0.0 0.0 0.2 2.0 0.7 0.2 0.3 0.4 0.2 0.3 0.0 0.0 0.3 0.3 0.0 0.0 0.0 0.0 0.0 0.0 0.0 0.0 0.0
nan nan nan nan nan nan nan nan nan nan nan nan nan nan nan nan nan 0.0 0.0 0.0 0.0 0.0 0.1 1.1 0.0 0.0 0.0 0.0 0.0 0.0 0.0 0.0 0.0 0.0 0.7 0.1 0.0 0.1 2.9 0.4 0.0 0.0 0.0 0.0 0.0 0.0 0.0 0.0 0.0 0.0 0.0 0.0 0.0 0.0
nan nan nan nan nan nan nan nan nan nan nan nan nan nan nan nan 0.0 0.0 0.0 0.0 nan 0.0 0.1 0.9 0.6 0.0 0.0 0.0 0.0 0.0 0.0 0.0 0.0 0.1 0.3 0.2 0.1 0.0 1.0 0.6 0.0 0.0 0.0 0.0 0.0 0.0 0.0 0.0 0.0 0.0 0.0 0.0 0.0 0.0
nan nan nan nan nan nan nan nan nan nan nan nan nan nan nan nan nan 0.0 0.0 nan nan 0.0 0.1 1.0 1.5 0.6 0.0 0.4 0.5 0.0 0.1 0.1 0.0 0.0 0.3 0.3 0.1 0.4 0.5 0.0 0.0 0.0 0.0 0.0 0.0 0.0 0.0 0.0 0.0 0.0 0.0 0.0 0.0 0.0
nan nan nan nan nan nan nan nan nan nan nan nan nan nan 0.0 0.0 0.0 0.0 nan nan 0.0 0.0 0.3 0.9 2.0 4.2 0.0 0.1 0.4 0.3 0.0 0.7 0.0 0.6 0.6 0.2 0.8 0.5 0.0 0.0 0.0 0.0 0.0 0.0 0.0 0.0 0.0 0.0 0.0 0.0 0.0 0.0 0.0 0.0
nan nan nan nan nan nan nan nan nan nan nan nan 0.0 0.0 0.4 0.2 nan nan 0.0 0.2 0.2 0.2 0.2 1.0 0.2 1.3 0.0 0.8 1.0 0.5 0.5 1.1 1.1 1.0 0.0 0.9 0.4 0.0 0.0 0.0 0.0 0.0 0.0 0.0 0.0 0.0 0.0 0.0 0.0 0.0 0.0 0.0 0.0 0.0
nan nan nan nan nan nan nan nan nan nan nan 0.0 0.2 0.3 0.0 nan 0.0 0.1 0.4 0.8 0.3 0.6 0.1 0.3 0.6 0.8 0.1 1.0 1.1 0.6 1.8 1.9 2.2 0.7 1.2 1.0 0.8 0.0 0.0 0.0 0.0 0.0 0.0 0.0 0.0 0.0 0.0 0.0 0.0 0.0 0.0 0.0 0.0 0.0
nan nan nan nan nan nan nan nan nan 0.0 0.0 0.0 0.0 0.0 0.0 0.0 0.6 1.5 3.8 2.3 1.1 0.5 1.1 1.1 0.6 0.2 0.5 0.0 0.4 1.1 1.4 2.1 1.8 0.3 3.6 2.4 0.6 0.0 0.0 0.0 0.0 0.0 0.0 0.0 0.0 0.0 0.0 0.0 0.0 0.0 0.0 0.1 0.2 0.6
nan nan nan nan nan nan nan nan nan nan nan 0.0 0.1 0.2 0.1 2.6 28.1 6.9 5.5 4.8 7.1 1.8 3.0 2.6 5.9 0.5 0.5 0.1 1.1 1.0 5.2 4.5 0.5 6.0 2.6 1.8 0.1 0.0 0.0 0.0 0.0 0.0 0.0 0.0 0.0 0.0 0.0 0.1 0.0 0.8 0.3 1.6 2.0 2.2
nan nan nan nan nan nan nan nan nan 0.0 0.0 0.3 1.7 32.6 9.0 10.1 5.1 5.0 5.3 5.6 3.4 3.8 1.9 1.1 1.8 1.3 2.3 2.2 2.7 5.7 3.6 1.4 9.0 6.7 4.2 1.0 0.3 0.3 0.2 0.4 0.2 0.5 0.5 0.5 0.3 0.9 1.4 2.4 4.1 4.8 6.0 5.7 5.1 4.6
nan nan nan nan nan nan nan nan nan 0.0 0.1 1.5 2.4 25.9 9.7 5.6 6.2 6.4 5.6 4.2 2.3 0.9 1.1 1.3 1.2 0.3 3.7 7.8 5.0 3.6 8.0 8.0 4.0 4.6 3.8 1.4 0.8 0.8 1.0 1.2 1.6 2.1 3.3 3.0 3.1 3.4 5.2 4.0 4.4 3.5 4.5 3.9 3.0 4.2
nan nan 0.0 nan nan nan nan nan 0.0 0.0 0.6 2.6 4.5 8.1 7.9 10.4 17.6 14.2 10.1 6.7 1.1 1.6 0.9 0.9 3.5 5.2 7.0 4.0 5.4 6.4 3.4 3.9 6.9 6.2 3.1 1.5 1.4 1.8 2.1 2.4 3.4 3.2 3.7 3.8 3.4 2.8 2.9 3.6 3.1 2.0 2.2 2.5 4.8 4.6
nan 0.1 nan nan nan nan nan 0.0 0.3 0.6 3.6 4.0 16.6 14.3 11.3 10.6 15.2 12.5 7.3 3.0 1.1 2.5 10.7 3.4 5.0 3.6 1.6 4.3 2.7 2.9 11.2 7.7 8.1 5.1 3.0 1.9 2.4 3.0 3.3 2.9 2.9 2.0 1.8 1.9 1.8 1.5 1.9 2.4 1.9 1.0 0.9 0.9 0.6 1.1
0.0 0.0 nan nan nan nan 0.0 0.1 0.8 1.5 2.5 5.5 12.3 15.7 7.6 8.2 12.4 8.1 5.3 1.9 1.4 1.0 1.4 2.2 0.9 4.3 11.3 5.5 7.8 6.6 6.8 7.5 5.2 3.6 3.0 2.6 2.5 2.7 2.6 2.9 2.8 2.2 1.9 2.2 1.8 1.8 2.0 1.8 1.0 1.5 0.6 0.5 0.5 0.5
0.0 0.0 nan nan 0.0 0.2 0.6 0.5 0.2 2.4 6.8 6.1 5.3 3.4 4.3 7.6 3.2 2.4 3.4 1.4 0.8 0.4 1.2 2.1 4.7 5.0 8.3 6.0 11.3 11.3 9.0 5.4 3.7 3.1 2.9 2.8 2.9 3.1 3.3 3.0 2.7 2.4 1.6 1.4 1.0 1.6 1.7 1.4 1.7 1.6 1.6 1.5 3.0 2.2
nan nan nan nan nan 0.4 0.7 2.0 0.2 0.5 3.6 4.3 2.3 2.9 2.4 3.8 2.8 7.4 4.9 1.2 0.7 1.3 2.4 3.6 8.1 7.0 6.0 6.0 5.2 4.8 3.9 2.9 2.9 3.1 3.2 3.1 3.5 2.3 3.2 2.6 3.0 2.5 2.1 1.6 2.3 0.9 2.2 2.1 2.1 2.2 2.4 2.0 4.6 6.2
nan nan nan 0.0 0.4 0.0 0.6 1.1 0.6 0.6 0.9 1.3 2.3 2.3 2.9 3.4 4.1 6.5 5.3 0.9 3.9 3.0 4.0 5.2 7.4 9.2 4.2 4.6 3.9 4.2 4.1 3.5 4.3 4.2 3.2 2.5 3.2 2.4 2.6 3.6 2.8 2.7 2.6 3.2 5.7 4.6 2.9 3.8 2.7 2.5 13.9 16.4 11.6 9.2
0.0 nan 0.6 0.4 0.9 0.9 2.2 0.4 0.6 0.6 1.1 1.2 1.6 1.3 4.3 13.5 12.5 6.5 1.7 5.0 3.3 5.1 3.6 3.7 3.7 2.7 2.4 2.0 2.6 1.6 2.5 1.7 2.6 3.0 1.7 1.8 3.9 3.6 4.6 4.9 3.6 5.7 5.5 6.8 5.4 9.5 5.8 2.9 4.5 5.1 10.3 15.4 6.2 7.1
nan 0.4 1.2 0.8 4.1 7.5 11.3 0.4 2.6 0.6 4.5 3.2 2.5 2.6 6.0 6.8 4.1 0.9 6.5 2.3 4.9 4.0 2.9 1.6 1.0 0.8 1.8 1.6 1.2 0.8 0.9 0.7 2.3 3.6 5.6 4.7 4.0 11.0 4.8 4.2 4.5 7.9 6.4 3.1 2.3 4.4 5.8 3.2 5.3 14.7 10.3 10.4 15.5 21.7
nan 1.9 8.0 7.5 6.7 18.2 4.7 9.4 1.1 1.8 2.3 4.2 4.8 4.7 2.0 3.9 1.6 5.6 6.4 2.8 4.4 2.8 2.0 1.4 1.6 1.7 1.6 1.3 2.3 2.5 2.5 2.0 2.0 4.6 4.6 2.6 3.0 2.8 2.4 2.8 3.3 3.5 3.9 1.8 3.6 5.8 5.4 14.9 7.5 7.4 17.0 29.7 36.1 30.8
15.0 23.5 13.0 37.2 6.8 14.9 7.4 6.7 5.8 3.7 6.6 6.7 5.2 6.2 14.0 3.4 8.2 7.7 3.2 5.9 5.0 8.7 5.1 4.3 2.4 2.7 6.2 7.2 4.5 3.9 2.0 1.6 2.5 2.2 7.0 2.0 3.7 3.4 2.9 1.6 3.3 2.2 3.2 12.2 15.2 19.6 19.2 18.6 20.0 19.2 12.7 33.7 17.2 15.4
36.0 18.8 25.8 9.2 16.7 9.0 5.9 10.4 10.7 10.5 7.5 8.0 8.8 4.6 7.2 9.5 7.9 9.5 3.5 11.9 10.1 18.4 22.5 21.2 13.4 4.7 2.8 2.1 2.7 2.1 1.8 1.1 1.4 5.0 2.0 1.4 2.0 11.2 10.4 7.6 5.8 6.3 4.8 10.4 17.0 25.7 19.1 17.3 23.7 12.8 21.0 13.7 9.6 28.1
33.0 22.7 3.6 1.7 2.4 2.4 11.8 12.3 4.4 8.9 9.0 10.5 7.2 10.5 11.1 17.2 11.5 5.3 4.2 4.8 5.0 11.3 5.4 5.6 5.4 4.3 3.2 2.6 2.2 2.3 2.1 2.5 2.8 2.1 2.9 2.1 2.3 2.6 7.1 15.2 8.6 5.5 6.9 9.9 15.4 30.1 30.1 28.1 30.2 20.4 24.8 26.0 26.1 32.3
7.6 4.2 14.9 10.6 8.5 4.9 10.3 8.1 9.0 10.3 6.9 3.5 5.9 12.0 13.3 13.0 8.7 6.3 5.7 6.6 7.9 5.4 5.3 5.5 4.1 3.1 3.7 3.8 5.1 6.5 7.7 6.6 8.2 6.1 5.1 4.7 4.4 8.8 8.9 9.5 8.3 7.5 11.1 21.3 25.9 27.8 22.4 32.7 35.1 35.1 32.4 30.9 32.8 31.4
7.8 6.8 5.1 14.0 6.7 7.3 9.7 11.7 10.3 4.7 1.5 5.1 17.9 9.0 7.8 5.1 11.4 14.0 8.2 5.9 7.3 7.7 15.4 14.1 13.8 20.1 13.7 8.9 11.2 16.7 12.4 15.0 12.1 13.6 18.7 18.6 17.8 16.6 11.9 14.7 15.9 20.6 19.8 32.4 7.8 12.2 17.8 25.3 30.3 33.7 31.4 38.3 36.0 40.1
6.5 8.1 7.1 8.7 10.7 7.9 15.4 11.2 14.1 10.5 1.8 5.1 4.1 2.6 3.3 9.5 12.3 8.3 10.1 11.9 14.3 28.9 41.0 35.6 32.7 36.4 40.5 29.6 25.2 18.0 26.1 30.6 22.7 24.6 31.7 24.1 20.7 20.0 23.4 29.0 28.6 27.9 27.7 46.6 29.1 12.9 9.4 26.9 20.9 39.3 35.1 32.8 33.3 37.9
4.7 12.1 9.7 6.9 9.9 21.6 22.1 23.7 21.8 11.4 12.5 24.6 22.1 24.3 19.9 16.0 16.1 8.5 9.7 14.5 18.6 45.4 48.4 50.6 49.0 51.1 41.7 27.6 43.1 38.6 26.7 40.2 18.2 13.8 13.7 20.7 23.2 32.1 34.0 29.3 31.7 42.2 36.5 33.9 40.7 32.5 25.9 33.8 40.6 35.2 26.1 23.9 24.3 25.6
16.1 24.2 22.9 11.4 16.0 31.0 15.3 36.7 28.9 27.0 29.5 33.0 33.8 36.0 40.8 34.1 20.6 15.9 17.9 28.3 34.2 39.9 9.4 34.4 48.2 24.2 23.4 21.6 27.0 27.8 10.3 17.6 17.9 17.8 18.9 24.5 29.8 33.7 22.5 19.0 39.9 40.6 33.7 36.0 30.6 31.4 25.7 31.9 30.5 31.5 29.2 25.9 23.4 21.1
33.8 22.9 15.8 16.6 27.1 17.3 23.8 25.3 7.0 25.2 23.7 27.5 34.2 29.2 34.7 28.0 14.3 22.4 11.3 25.2 30.6 33.3 28.1 37.7 39.7 46.1 25.5 21.1 20.1 21.4 12.1 19.3 21.0 10.4 9.1 9.1 9.1 11.5 27.1 35.8 43.1 33.7 21.7 29.0 32.3 29.2 23.8 19.2 20.2 22.6 23.1 26.0 23.7 21.7
Water_Equivalent
nan nan nan nan nan nan nan nan nan nan nan nan nan nan nan nan nan 0.00 0.00 0.00 0.00 0.00 0.00 0.00 0.00 0.00 0.00 0.00 0.03 0.00 0.04 0.04 0.09 0.13 0.22 0.14 0.57 0.09 0.06 0.00 0.00 0.02 0.18 0.50 0.18 0.23 0.30 0.00 0.00 0.00 0.03 0.00 0.00 0.00
nan nan nan nan nan nan nan nan nan nan nan nan nan nan nan nan nan nan 0.00 0.00 0.00 0.00 0.00 0.00 0.00 0.00 0.00 0.00 0.00 0.00 0.00 0.00 0.00 0.06 0.19 0.17 0.61 0.85 0.02 0.29 0.00 0.11 0.03 0.08 0.01 0.09 0.00 0.00 0.00 0.00 0.00 0.00 0.00 0.00
nan nan nan nan nan nan nan nan nan nan nan nan nan nan nan nan nan nan 0.00 0.00 0.00 0.01 0.00 0.00 0.00 0.00 0.00 0.00 0.00 0.00 0.01 0.00 0.00 0.00 0.06 0.14 0.08 0.15 0.58 0.11 0.03 0.00 0.00 0.05 0.01 0.00 0.00 0.00 0.00 0.00 0.00 0.00 0.00 0.00
nan nan nan nan nan nan nan nan nan nan nan nan nan nan nan nan nan nan 0.00 0.00 0.00 0.00 0.29 0.04 0.00 0.00 0.00 0.00 0.00 0.00 0.00 0.00 0.00 0.00 0.10 0.20 0.43 0.00 0.21 0.09 0.15 0.00 0.00 0.00 0.00 0.00 0.00 0.00 0.00 0.00 0.00 0.00 0.00 0.00
nan nan nan nan nan nan nan nan nan nan nan nan nan nan nan nan nan nan 0.00 0.00 0.00 0.00 0.12 0.06 0.00 0.00 0.00 0.00 0.00 0.00 0.00 0.00 0.00 0.07 0.62 0.22 0.05 0.10 0.11 0.07 0.09 0.00 0.00 0.08 0.09 0.00 0.00 0.00 0.00 0.00 0.00 0.00 0.00 0.00
nan nan nan nan nan nan nan nan nan nan nan nan nan nan nan nan nan 0.00 0.00 0.00 0.00 0.00 0.03 0.29 0.00 0.00 0.00 0.00 0.00 0.00 0.00 0.00 0.00 0.01 0.23 0.04 0.00 0.02 0.90 0.11 0.00 0.00 0.00 0.00 0.00 0.00 0.00 0.00 0.00 0.00 0.00 0.00 0.00 0.00
nan nan nan nan nan nan nan nan nan nan nan nan nan nan nan nan 0.00 0.00 0.00 0.00 nan 0.00 0.04 0.22 0.15 0.01 0.00 0.00 0.00 0.00 0.00 0.00 0.00 0.02 0.10 0.06 0.04 0.00 0.30 0.15 0.00 0.00 0.00 0.00 0.00 0.00 0.00 0.00 0.00 0.00 0.00 0.00 0.00 0.00
nan nan nan nan nan nan nan nan nan nan nan nan nan nan nan nan nan 0.00 0.00 nan nan 0.00 0.02 0.26 0.41 0.18 0.00 0.14 0.16 0.00 0.05 0.03 0.01 0.00 0.08 0.11 0.04 0.13 0.13 0.00 0.00 0.00 0.00 0.00 0.00 0.00 0.00 0.00 0.00 0.00 0.00 0.00 0.00 0.00
nan nan nan nan nan nan nan nan nan nan nan nan nan nan 0.00 0.00 0.01 0.00 nan nan 0.00 0.00 0.10 0.28 0.51 1.16 0.00 0.05 0.14 0.09 0.01 0.23 0.01 0.21 0.18 0.06 0.25 0.15 0.00 0.00 0.00 0.00 0.00 0.00 0.00 0.00 0.00 0.00 0.00 0.00 0.00 0.00 0.00 0.00
nan nan nan nan nan nan nan nan nan nan nan nan 0.00 0.00 0.12 0.05 nan nan 0.00 0.05 0.06 0.06 0.06 0.34 0.06 0.39 0.00 0.25 0.33 0.17 0.18 0.36 0.35 0.33 0.00 0.27 0.12 0.00 0.00 0.00 0.00 0.00 0.00 0.00 0.00 0.00 0.00 0.00 0.00 0.00 0.00 0.00 0.00 0.00
nan nan nan nan nan nan nan nan nan nan nan 0.00 0.07 0.09 0.00 nan 0.00 0.04 0.14 0.21 0.09 0.20 0.04 0.10 0.19 0.26 0.04 0.33 0.37 0.20 0.60 0.63 0.60 0.19 0.38 0.29 0.22 0.00 0.00 0.00 0.00 0.00 0.00 0.00 0.00 0.00 0.00 0.00 0.00 0.00 0.00 0.00 0.00 0.01
nan nan nan nan nan nan nan nan nan 0.00 0.00 0.00 0.01 0.00 0.00 0.01 0.17 0.46 1.02 0.62 0.27 0.15 0.36 0.37 0.19 0.08 0.16 0.00 0.13 0.36 0.44 0.61 0.42 0.10 1.06 0.55 0.13 0.00 0.00 0.00 0.00 0.00 0.00 0.00 0.00 0.00 0.00 0.00 0.00 0.00 0.01 0.02 0.04 0.12
nan nan nan nan nan nan nan nan nan nan nan 0.00 0.04 0.05 0.04 0.82 4.63 1.70 1.28 1.17 2.06 0.58 0.99 0.85 1.99 0.18 0.18 0.05 0.37 0.33 1.45 1.01 0.17 1.48 0.44 0.32 0.02 0.00 0.00 0.00 0.00 0.00 0.00 0.00 0.01 0.00 0.01 0.02 0.00 0.17 0.06 0.30 0.37 0.33
nan nan nan nan nan nan nan nan nan 0.00 0.00 0.12 0.59 4.93 2.18 2.37 1.07 1.03 1.10 1.43 1.04 1.25 0.64 0.36 0.60 0.42 0.75 0.73 0.86 1.68 0.94 0.40 1.82 1.27 0.72 0.21 0.06 0.05 0.03 0.07 0.03 0.08 0.10 0.11 0.09 0.18 0.25 0.41 0.64 0.76 0.96 0.98 0.79 0.70
nan nan nan nan nan nan nan nan nan 0.00 0.03 0.39 0.58 3.60 1.74 1.23 1.45 1.62 1.64 1.27 0.73 0.30 0.37 0.44 0.39 0.09 1.06 1.99 1.24 0.93 1.72 1.58 0.77 0.85 0.76 0.28 0.15 0.15 0.18 0.22 0.28 0.36 0.56 0.49 0.50 0.53 0.78 0.57 0.64 0.47 0.67 0.58 0.45 0.62
nan nan 0.00 nan nan nan nan nan 0.00 0.00 0.18 0.51 0.77 1.42 1.61 2.13 3.54 3.50 2.67 1.93 0.30 0.47 0.30 0.30 0.83 1.27 1.45 0.97 1.07 1.19 0.65 0.65 1.22 1.19 0.64 0.31 0.26 0.32 0.36 0.41 0.59 0.57 0.59 0.56 0.48 0.39 0.40 0.53 0.46 0.27 0.31 0.38 0.77 0.75
nan 0.02 nan nan nan nan nan 0.00 0.08 0.11 0.76 0.73 2.86 3.45 2.26 2.22 3.01 2.70 1.71 0.67 0.22 0.76 2.66 0.75 0.98 0.65 0.35 0.86 0.49 0.56 1.85 1.28 1.59 0.99 0.52 0.32 0.41 0.49 0.55 0.47 0.49 0.32 0.27 0.28 0.26 0.22 0.25 0.35 0.28 0.15 0.13 0.11 0.08 0.16
0.01 0.00 nan nan nan nan 0.00 0.02 0.21 0.33 0.40 0.85 2.04 2.76 1.41 1.51 2.71 1.84 1.23 0.41 0.36 0.25 0.31 0.39 0.20 0.74 2.05 0.88 1.22 1.03 1.09 1.42 0.94 0.56 0.43 0.40 0.37 0.38 0.39 0.40 0.39 0.30 0.25 0.29 0.24 0.24 0.27 0.25 0.14 0.21 0.08 0.06 0.08 0.08
0.00 0.00 nan nan 0.00 0.06 0.16 0.14 0.06 0.42 1.05 1.05 0.91 0.66 0.85 1.58 0.66 0.52 0.86 0.37 0.19 0.10 0.27 0.42 0.88 0.75 1.20 0.82 1.82 2.10 1.66 0.88 0.54 0.39 0.38 0.36 0.39 0.42 0.44 0.41 0.36 0.31 0.20 0.17 0.12 0.21 0.21 0.15 0.21 0.21 0.22 0.21 0.45 0.33
nan nan nan nan nan 0.12 0.14 0.43 0.06 0.10 0.62 0.71 0.52 0.58 0.47 0.74 0.63 1.78 1.34 0.32 0.17 0.30 0.48 0.59 1.11 0.85 0.74 0.75 0.67 0.64 0.52 0.46 0.44 0.45 0.45 0.42 0.47 0.29 0.39 0.32 0.37 0.29 0.26 0.18 0.28 0.20 0.28 0.26 0.26 0.28 0.33 0.28 0.67 0.88
nan nan nan 0.00 0.11 0.00 0.15 0.23 0.12 0.15 0.17 0.25 0.48 0.50 0.55 0.74 0.84 1.30 1.13 0.21 0.83 0.53 0.53 0.64 1.05 1.50 0.52 0.59 0.53 0.54 0.51 0.44 0.55 0.73 0.46 0.29 0.38 0.30 0.32 0.44 0.36 0.34 0.32 0.39 0.82 0.57 0.43 0.49 0.33 0.33 2.21 2.63 1.81 1.46
0.00 nan 0.16 0.12 0.23 0.21 0.46 0.10 0.15 0.14 0.24 0.26 0.34 0.28 0.86 2.50 2.24 1.22 0.36 0.91 0.49 0.64 0.48 0.50 0.46 0.36 0.32 0.23 0.30 0.18 0.29 0.21 0.31 0.41 0.35 0.26 0.47 0.44 0.52 0.56 0.44 0.70 0.67 0.87 0.69 1.29 0.80 0.37 0.62 0.73 1.58 2.58 1.01 1.14
nan 0.11 0.30 0.20 0.83 1.49 2.28 0.11 0.54 0.12 0.87 0.64 0.52 0.49 1.10 1.23 0.75 0.19 1.09 0.36 0.71 0.49 0.39 0.23 0.12 0.11 0.23 0.19 0.18 0.12 0.14 0.11 0.31 0.45 0.72 0.55 0.45 1.52 0.58 0.51 0.57 1.10 0.86 0.38 0.30 0.62 0.84 0.83 0.88 2.29 1.62 1.66 2.51 3.46
nan 0.46 1.47 1.45 1.34 2.87 1.04 1.71 0.22 0.36 0.46 0.82 0.88 0.82 0.34 0.71 0.30 0.96 0.97 0.38 0.50 0.38 0.29 0.18 0.26 0.27 0.27 0.19 0.30 0.32 0.36 0.31 0.29 0.64 0.67 0.36 0.38 0.33 0.31 0.37 0.46 0.49 0.56 0.26 0.53 0.87 0.84 2.34 2.04 1.12 2.59 4.66 5.59 4.57
2.02 3.16 2.40 4.12 1.32 2.57 1.23 1.14 1.04 0.69 1.09 1.18 0.90 1.07 2.09 0.65 1.32 1.19 0.48 0.75 0.65 1.16 0.67 0.67 0.38 0.42 0.87 0.94 0.55 0.46 0.24 0.23 0.32 0.27 1.00 0.29 0.53 0.48 0.42 0.23 0.48 0.32 0.46 1.85 2.31 3.05 3.02 2.96 3.15 2.97 1.83 5.17 2.47 2.16
4.20 3.29 3.35 1.68 2.66 1.60 0.98 1.55 1.64 1.68 1.19 1.25 1.38 0.76 1.29 1.61 1.22 1.24 0.45 1.59 1.35 2.52 3.20 3.06 1.98 0.66 0.32 0.25 0.32 0.25 0.21 0.17 0.22 0.71 0.28 0.20 0.28 1.58 1.45 1.03 0.79 0.90 0.66 1.48 2.45 3.89 2.84 2.54 3.55 1.81 3.05 1.99 2.44 3.89
3.69 3.29 0.65 0.33 0.47 0.44 1.81 2.03 0.80 1.46 1.33 1.50 1.19 1.63 1.86 2.24 1.56 0.61 0.51 0.57 0.58 1.35 0.63 0.70 0.74 0.55 0.38 0.30 0.26 0.29 0.28 0.34 0.37 0.26 0.39 0.29 0.31 0.36 0.93 1.88 1.06 0.70 0.95 1.40 2.24 4.54 4.42 4.12 4.37 2.88 3.48 3.77 3.64 4.43
1.20 0.72 1.66 1.89 1.39 0.90 1.57 1.27 1.39 1.53 1.13 0.56 0.96 1.62 1.78 1.74 1.02 0.70 0.59 0.77 0.96 0.67 0.68 0.71 0.51 0.40 0.46 0.45 0.61 0.71 0.89 0.81 1.05 0.83 0.68 0.63 0.61 1.08 1.05 1.18 1.06 2.47 1.52 2.96 3.75 3.95 3.10 4.66 4.98 4.89 4.21 4.19 4.17 4.25
1.21 1.26 0.95 1.50 0.97 1.13 1.39 1.65 1.43 0.74 0.24 0.83 2.77 1.26 1.02 0.58 1.15 1.43 0.79 0.62 0.97 1.05 1.65 1.50 1.43 2.23 1.55 1.06 1.31 1.87 1.32 1.60 1.42 1.43 2.02 2.00 2.06 1.76 1.25 1.54 1.68 2.23 2.14 3.70 2.59 2.65 2.60 3.33 3.83 4.04 4.40 4.84 4.65 5.02
0.99 1.54 1.19 1.29 1.12 1.02 2.33 1.78 2.39 1.81 0.29 0.82 0.66 0.38 0.39 0.93 1.16 0.84 1.02 1.23 1.52 3.30 4.95 4.21 3.81 4.36 4.87 3.39 2.81 1.94 2.90 3.48 2.48 2.74 3.67 2.61 2.21 2.13 2.53 3.21 3.19 3.10 3.07 5.64 3.22 1.39 2.47 3.37 3.77 4.83 4.10 3.69 3.74 4.31
0.83 2.24 1.67 1.20 1.56 3.22 3.09 3.64 3.66 1.88 2.06 3.70 3.33 3.63 2.38 1.65 1.63 0.82 0.95 1.46 1.98 5.69 6.16 6.39 6.14 6.41 5.00 3.08 5.20 4.55 2.96 4.77 1.92 1.43 1.41 2.21 2.50 3.59 3.84 3.23 3.55 4.92 4.17 3.83 4.72 3.61 2.80 3.79 4.70 4.11 2.91 2.57 2.57 2.69
2.48 3.71 2.87 1.45 2.38 4.64 2.50 5.61 4.44 4.00 4.98 4.61 4.76 4.55 4.93 3.96 2.20 1.63 1.86 3.18 3.97 4.77 2.62 3.96 5.93 2.65 2.53 2.31 2.99 3.09 3.07 1.85 1.89 1.86 1.98 2.63 3.30 3.79 2.41 1.99 4.58 4.69 3.77 4.04 3.36 3.43 2.76 3.52 3.32 3.47 3.14 2.73 2.45 2.19
5.55 3.68 2.34 2.33 4.27 2.67 3.25 3.88 1.07 3.64 3.23 3.75 4.34 3.49 3.98 3.13 1.44 2.37 1.11 2.79 3.47 3.81 3.14 4.40 4.68 5.64 2.77 2.27 2.13 2.31 2.63 2.05 2.65 3.43 3.02 3.02 3.00 2.89 2.93 4.06 5.01 3.74 2.29 3.16 3.53 3.15 2.52 1.99 2.09 2.37 2.42 2.75 2.48 2.26
SL_Ratio
nan nan nan nan nan nan nan nan nan nan nan nan nan nan nan nan nan nan nan nan nan nan nan nan nan nan nan nan 3.1 nan 3.0 3.0 3.1 3.6 3.6 3.9 4.0 3.8 4.3 nan 3.3 4.1 4.4 4.4 4.0 4.5 4.7 nan nan 4.3 3.5 nan nan nan
nan nan nan nan nan nan nan nan nan nan nan nan nan nan nan nan nan nan nan nan nan nan nan nan nan nan nan nan nan nan 3.3 nan nan 3.0 3.3 3.2 3.9 3.4 4.4 4.3 nan 4.3 3.8 4.0 3.9 4.2 nan nan nan nan nan nan nan nan
nan nan nan nan nan nan nan nan nan nan nan nan nan nan nan nan nan nan nan nan nan 3.1 nan nan nan nan nan nan nan nan 3.2 nan nan nan 3.2 3.2 3.8 3.8 4.2 4.0 3.9 nan nan 3.5 4.0 nan nan nan nan nan nan nan nan nan
nan nan nan nan nan nan nan nan nan nan nan nan nan nan nan nan nan nan nan nan nan nan 3.0 3.1 nan nan nan nan nan nan nan nan nan nan 3.1 3.1 3.6 nan 4.0 3.4 3.5 3.8 nan nan nan nan nan nan nan nan nan nan nan nan
nan nan nan nan nan nan nan nan nan nan nan nan nan nan nan nan nan nan nan nan nan nan 3.1 3.0 nan nan nan nan nan nan nan nan nan 3.1 3.2 3.2 3.4 3.2 3.5 3.4 3.8 nan nan 3.3 3.6 nan nan nan nan nan nan nan nan nan
nan nan nan nan nan nan nan nan nan nan nan nan nan nan nan nan nan nan 5.0 nan nan nan 3.1 3.9 3.3 nan nan nan nan nan nan nan nan 2.9 3.2 3.2 nan 3.1 3.2 3.6 nan nan nan nan nan nan nan nan nan nan nan nan nan nan
nan nan nan nan nan nan nan nan nan nan nan nan nan nan nan nan nan nan nan nan nan nan 3.1 3.8 3.6 2.9 nan nan nan nan nan nan nan 3.1 3.1 3.2 3.1 3.0 3.4 3.7 nan nan nan nan nan nan nan nan nan nan nan nan nan nan
nan nan nan nan nan nan nan nan nan nan nan nan nan nan nan nan nan nan nan nan nan nan 3.1 3.8 3.5 3.1 nan 3.0 3.0 nan 3.0 3.0 2.9 nan 3.1 3.1 3.0 3.5 3.4 nan nan nan nan nan nan nan nan nan nan nan nan nan nan nan
nan nan nan nan nan nan nan nan nan nan nan nan nan nan nan nan 3.0 5.0 nan nan nan nan 3.3 3.3 3.9 3.6 nan 3.0 3.0 3.1 2.8 3.0 3.2 3.0 3.2 3.0 3.1 3.3 nan nan nan nan nan nan nan nan nan nan nan nan nan nan nan nan
nan nan nan nan nan nan nan nan nan nan nan nan nan 3.3 3.1 3.0 nan nan 2.5 3.1 3.1 3.1 3.0 3.1 3.0 3.3 2.9 3.0 3.0 3.0 3.1 3.0 3.2 3.0 3.3 3.2 3.3 nan nan nan nan nan nan nan nan nan nan nan nan nan nan nan nan nan
nan nan nan nan nan nan nan nan nan nan nan 2.9 3.0 3.1 nan nan 1.7 3.1 3.0 3.9 3.6 3.1 3.0 3.0 3.0 3.1 3.0 3.0 3.0 3.0 3.0 3.0 3.6 3.7 3.2 3.5 3.8 nan nan nan nan nan nan nan nan nan nan nan nan nan nan nan 4.0 4.4
nan nan nan nan nan nan nan nan nan nan nan nan 3.1 nan 2.9 4.8 3.3 3.3 3.7 3.7 4.0 3.3 3.0 3.0 3.0 3.0 3.1 nan 3.0 3.0 3.2 3.4 4.3 3.1 3.4 4.3 4.6 nan nan nan nan nan nan nan nan nan nan nan nan 3.6 3.9 4.2 4.5 4.8
nan nan nan nan nan nan nan nan nan nan nan nan 3.1 3.1 2.5 3.1 6.1 4.1 4.3 4.1 3.5 3.1 3.0 3.0 3.0 3.0 3.0 3.0 3.0 3.0 3.6 4.4 3.2 4.1 5.8 5.6 6.0 nan nan nan nan nan nan nan 2.3 nan 2.6 2.5 2.5 4.9 5.0 5.3 5.5 6.8
nan nan nan nan nan nan nan nan nan nan nan 3.0 2.8 6.6 4.1 4.3 4.8 4.8 4.8 3.9 3.3 3.0 3.0 3.0 3.1 3.0 3.1 3.1 3.1 3.4 3.8 3.6 4.9 5.3 5.8 4.9 5.6 5.7 5.6 5.5 5.8 5.9 5.0 4.4 3.4 4.9 5.5 5.9 6.4 6.3 6.2 5.8 6.4 6.5
nan nan nan nan nan nan nan nan nan nan 3.4 4.0 4.1 7.2 5.5 4.6 4.3 4.0 3.4 3.3 3.2 3.0 3.0 3.0 3.1 3.1 3.5 3.9 4.1 3.8 4.6 5.1 5.2 5.4 5.0 5.0 5.3 5.3 5.5 5.4 5.5 5.7 5.9 6.1 6.2 6.3 6.6 7.0 6.8 7.4 6.7 6.7 6.8 6.8
nan nan nan nan nan nan nan nan nan nan 3.6 5.1 5.9 5.8 4.9 4.9 5.0 4.0 3.8 3.5 3.8 3.4 3.0 3.2 4.2 4.1 4.8 4.2 5.0 5.4 5.3 5.9 5.7 5.2 4.9 4.9 5.2 5.5 5.8 5.8 5.7 5.7 6.2 6.8 7.1 7.1 7.2 6.8 6.7 7.6 7.1 6.7 6.3 6.1
nan 3.1 nan nan nan nan nan nan 3.1 5.5 4.8 5.5 5.8 4.2 5.0 4.8 5.0 4.6 4.2 4.5 5.1 3.2 4.0 4.5 5.1 5.6 4.7 5.0 5.5 5.3 6.1 6.0 5.1 5.2 5.8 5.9 5.9 6.1 6.0 6.2 6.0 6.3 6.6 6.8 6.9 7.1 7.5 6.9 6.7 6.7 6.9 8.4 7.4 6.6
3.1 nan nan nan nan nan nan 3.1 3.8 4.6 6.3 6.5 6.0 5.7 5.4 5.4 4.6 4.4 4.3 4.6 3.8 4.0 4.4 5.8 4.6 5.7 5.5 6.2 6.4 6.4 6.2 5.3 5.5 6.4 7.0 6.5 6.9 7.1 6.8 7.2 7.2 7.4 7.6 7.5 7.5 7.7 7.5 7.3 7.6 7.1 8.0 7.6 6.5 6.4
nan nan nan nan nan 3.3 3.6 3.8 3.5 5.8 6.5 5.8 5.8 5.2 5.0 4.8 4.8 4.6 3.9 3.9 4.2 3.7 4.4 5.0 5.4 6.7 6.9 7.3 6.2 5.4 5.4 6.1 6.9 7.8 7.6 7.7 7.5 7.5 7.5 7.4 7.5 7.7 7.7 8.2 8.1 7.7 7.9 8.8 8.0 7.5 7.1 6.8 6.7 6.8
nan nan nan nan nan 3.6 4.7 4.7 3.3 4.4 5.7 6.0 4.5 4.9 5.1 5.1 4.4 4.2 3.7 3.6 3.8 4.3 5.1 6.1 7.3 8.2 8.0 8.0 7.8 7.5 7.5 6.3 6.6 6.9 7.1 7.4 7.3 8.0 8.0 8.1 8.0 8.6 8.2 9.1 8.1 4.8 7.8 8.1 8.2 7.8 7.2 7.2 6.8 7.0
nan nan nan nan 3.6 5.0 4.0 4.7 4.7 4.2 4.9 5.0 4.8 4.6 5.3 4.6 5.0 5.0 4.7 4.3 4.7 5.6 7.5 8.2 7.1 6.2 8.0 7.8 7.3 7.7 8.1 8.0 7.9 5.8 6.9 8.4 8.4 8.1 8.2 8.2 7.9 8.0 7.9 8.3 6.9 8.1 6.6 7.8 8.2 7.7 6.3 6.2 6.4 6.3
nan nan 3.8 3.7 4.0 4.1 4.7 4.0 4.3 4.7 4.6 4.6 4.7 4.6 5.1 5.4 5.6 5.3 4.7 5.5 6.8 8.0 7.6 7.4 7.9 7.6 7.4 8.5 8.6 8.8 8.8 8.3 8.4 7.4 4.9 6.8 8.3 8.2 8.8 8.8 8.1 8.1 8.2 7.8 7.8 7.3 7.3 8.0 7.2 7.1 6.5 6.0 6.1 6.2
nan 3.8 4.0 4.0 5.0 5.0 5.0 3.9 4.9 4.8 5.2 5.0 4.8 5.3 5.5 5.5 5.5 4.7 6.0 6.2 6.9 8.2 7.4 7.0 8.1 7.8 7.7 8.2 6.7 6.8 6.4 6.6 7.4 8.1 7.9 8.6 8.9 7.2 8.2 8.4 7.8 7.2 7.4 8.2 7.7 7.0 6.8 3.9 6.0 6.4 6.4 6.3 6.2 6.3
nan 4.2 5.5 5.2 5.0 6.3 4.5 5.5 4.8 5.1 4.9 5.2 5.4 5.8 5.9 5.5 5.2 5.8 6.6 7.4 8.8 7.2 6.7 8.1 6.1 6.3 6.1 7.0 7.6 7.8 7.1 6.4 7.1 7.2 6.9 7.4 7.9 8.5 7.8 7.6 7.3 7.1 7.0 6.7 6.7 6.7 6.5 6.4 3.7 6.7 6.6 6.4 6.5 6.7
7.4 7.4 5.4 9.0 5.1 5.8 6.0 5.9 5.6 5.3 6.1 5.7 5.8 5.8 6.7 5.3 6.3 6.5 6.6 7.9 7.7 7.5 7.6 6.4 6.3 6.4 7.1 7.6 8.2 8.6 8.4 6.9 7.8 8.2 7.0 7.0 6.9 7.0 6.9 6.8 6.9 7.0 6.8 6.6 6.6 6.4 6.4 6.3 6.3 6.5 7.0 6.5 7.0 7.1
8.6 5.7 7.7 5.5 6.3 5.6 6.0 6.7 6.5 6.2 6.3 6.4 6.3 6.0 5.6 5.9 6.5 7.7 7.8 7.5 7.5 7.3 7.0 6.9 6.8 7.2 8.7 8.2 8.3 8.4 8.5 6.4 6.2 7.1 7.4 7.2 7.2 7.1 7.2 7.4 7.3 7.0 7.2 7.0 6.9 6.6 6.8 6.8 6.7 7.1 6.9 6.9 4.0 7.2
8.9 6.9 5.6 5.2 5.2 5.4 6.5 6.0 5.4 6.1 6.8 7.0 6.1 6.4 6.0 7.7 7.4 8.7 8.3 8.5 8.6 8.3 8.6 8.0 7.3 7.7 8.4 8.7 8.2 7.8 7.3 7.4 7.8 7.9 7.4 7.2 7.3 7.3 7.7 8.1 8.1 7.9 7.2 7.0 6.9 6.6 6.8 6.8 6.9 7.1 7.1 6.9 7.2 7.3
6.4 5.8 9.0 5.6 6.1 5.5 6.5 6.4 6.4 6.7 6.1 6.3 6.1 7.4 7.5 7.5 8.5 9.1 9.7 8.6 8.3 8.1 7.8 7.8 8.0 7.9 7.9 8.4 8.5 9.2 8.6 8.2 7.8 7.4 7.4 7.5 7.3 8.2 8.5 8.1 7.9 3.0 7.3 7.2 6.9 7.0 7.2 7.0 7.1 7.2 7.7 7.4 7.9 7.4
6.5 5.4 5.4 9.3 6.9 6.5 7.0 7.1 7.2 6.4 6.4 6.1 6.5 7.1 7.7 8.8 9.9 9.8 10.4 9.6 7.5 7.3 9.3 9.4 9.7 9.1 8.8 8.4 8.6 8.9 9.4 9.4 8.5 9.5 9.3 9.3 8.7 9.4 9.6 9.5 9.4 9.2 9.2 8.8 3.0 4.6 6.8 7.6 7.9 8.4 7.1 7.9 7.8 8.0
6.5 5.2 6.0 6.8 9.6 7.7 6.6 6.3 5.9 5.8 6.2 6.3 6.1 6.9 8.5 10.2 10.6 9.9 9.9 9.7 9.4 8.8 8.3 8.5 8.6 8.3 8.3 8.7 9.0 9.3 9.0 8.8 9.2 9.0 8.6 9.2 9.4 9.4 9.2 9.0 9.0 9.0 9.0 8.3 9.0 9.3 3.8 8.0 5.5 8.1 8.6 8.9 8.9 8.8
5.7 5.4 5.8 5.7 6.3 6.7 7.1 6.5 6.0 6.1 6.1 6.7 6.6 6.7 8.4 9.7 9.9 10.3 10.1 9.9 9.4 8.0 7.9 7.9 8.0 8.0 8.3 9.0 8.3 8.5 9.0 8.4 9.5 9.7 9.7 9.4 9.3 8.9 8.8 9.0 8.9 8.6 8.7 8.8 8.6 9.0 9.3 8.9 8.6 8.6 9.0 9.3 9.5 9.5
6.5 6.5 8.0 7.8 6.7 6.7 6.1 6.5 6.5 6.8 5.9 7.2 7.1 7.9 8.3 8.6 9.4 9.7 9.7 8.9 8.6 8.4 3.6 8.7 8.1 9.1 9.2 9.3 9.0 9.0 3.4 9.5 9.5 9.5 9.5 9.3 9.0 8.9 9.4 9.5 8.7 8.6 8.9 8.9 9.1 9.1 9.3 9.1 9.2 9.1 9.3 9.5 9.6 9.7
6.1 6.2 6.8 7.1 6.3 6.5 7.3 6.5 6.5 6.9 7.3 7.3 7.9 8.3 8.7 9.0 9.9 9.5 10.1 9.0 8.8 8.7 8.9 8.6 8.5 8.2 9.2 9.3 9.4 9.3 4.6 9.4 7.9 3.0 3.0 3.0 3.0 4.0 9.2 8.8 8.6 9.0 9.5 9.2 9.1 9.3 9.4 9.7 9.7 9.5 9.6 9.5 9.5 9.6